| time (UTC) | temp C | wind direction | speed KPH | gust KPH | rain 1hr cm | rain 24hr cm | rain mn cm | humidity % | barometer mb |
| 20260507090011 | 18 | 128 | 4.8 | 9.7 | 0.00 | 0.33 | 0.20 | 74 | 1014.3 |
| 20260507084515 | 17 | 84 | 1.6 | 8.0 | 0.00 | 0.33 | 0.20 | 76 | 1014.4 |
| 20260507083009 | 17 | 63 | 3.2 | 8.0 | 0.00 | 0.33 | 0.20 | 77 | 1014.3 |
| 20260507081506 | 17 | 122 | 1.6 | 6.4 | 0.03 | 0.33 | 0.20 | 80 | 1014.3 |
| 20260507080103 | 16 | 180 | 3.2 | 6.4 | 0.03 | 0.33 | 0.20 | 81 | 1014.3 |
| 20260507074615 | 16 | 107 | 0.0 | 8.0 | 0.03 | 0.33 | 0.20 | 84 | 1014.3 |
| 20260507073058 | 15 | 80 | 1.6 | 8.0 | 0.03 | 0.33 | 0.20 | 86 | 1014.3 |
| 20260507071556 | 14 | 221 | 0.0 | 0.0 | 0.00 | 0.33 | 0.18 | 91 | 1014.3 |
| 20260507070106 | 13 | 128 | 0.0 | 0.0 | 0.00 | 0.33 | 0.18 | 92 | 1014.2 |
| 20260507064559 | 13 | 128 | 0.0 | 0.0 | 0.00 | 0.33 | 0.18 | 94 | 1014.2 |
| 20260507063057 | 12 | 128 | 0.0 | 0.0 | 0.00 | 0.33 | 0.18 | 96 | 1014.2 |
| 20260507061551 | 12 | 53 | 0.0 | 3.2 | 0.00 | 0.33 | 0.18 | 96 | 1014.1 |
| 20260507060049 | 11 | 343 | 0.0 | 6.4 | 0.00 | 0.33 | 0.18 | 97 | 1013.9 |
| 20260507054553 | 11 | 177 | 0.0 | 0.0 | 0.00 | 0.33 | 0.18 | 97 | 1014.0 |
| 20260507053048 | 11 | 177 | 0.0 | 0.0 | 0.00 | 0.33 | 0.18 | 97 | 1013.7 |
| 20260507051547 | 10 | 177 | 0.0 | 0.0 | 0.00 | 0.33 | 0.18 | 97 | 1013.7 |
| 20260507050046 | 10 | 177 | 0.0 | 0.0 | 0.00 | 0.33 | 0.18 | 97 | 1013.4 |
| 20260507044545 | 10 | 177 | 0.0 | 0.0 | 0.00 | 0.33 | 0.18 | 96 | 1013.4 |
| 20260507043044 | 10 | 177 | 0.0 | 0.0 | 0.00 | 0.33 | 0.18 | 97 | 1013.1 |
| 20260507041544 | 10 | 177 | 0.0 | 0.0 | 0.00 | 0.33 | 0.18 | 96 | 1012.9 |
| 20260507040041 | 10 | 173 | 0.0 | 0.0 | 0.00 | 0.33 | 0.18 | 96 | 1012.9 |
| 20260507034542 | 10 | 173 | 0.0 | 0.0 | 0.00 | 0.33 | 0.18 | 96 | 1012.8 |
| 20260507033044 | 10 | 173 | 0.0 | 0.0 | 0.00 | 0.33 | 0.18 | 96 | 1012.9 |
| 20260507031539 | 10 | 173 | 0.0 | 0.0 | 0.00 | 0.33 | 0.18 | 96 | 1012.7 |
| 20260507030041 | 10 | 291 | 0.0 | 0.0 | 0.00 | 0.33 | 0.18 | 95 | 1012.8 |
| 20260507024538 | 10 | 251 | 0.0 | 0.0 | 0.00 | 0.33 | 0.18 | 95 | 1012.7 |
| 20260507023035 | 10 | 251 | 0.0 | 0.0 | 0.00 | 0.33 | 0.18 | 95 | 1012.6 |
| 20260507021534 | 10 | 251 | 0.0 | 0.0 | 0.00 | 0.33 | 0.18 | 95 | 1012.6 |
| 20260507020041 | 11 | 251 | 0.0 | 0.0 | 0.00 | 0.33 | 0.18 | 95 | 1012.6 |
| 20260507014532 | 11 | 251 | 0.0 | 1.6 | 0.00 | 0.33 | 0.18 | 95 | 1012.7 |
| 20260507013046 | 11 | 251 | 0.0 | 3.2 | 0.00 | 0.33 | 0.18 | 95 | 1012.7 |
| 20260507011531 | 11 | 250 | 0.0 | 0.0 | 0.00 | 0.33 | 0.18 | 94 | 1012.6 |
| 20260507010035 | 11 | 250 | 0.0 | 0.0 | 0.00 | 0.33 | 0.18 | 94 | 1012.6 |
| 20260507004528 | 11 | 250 | 0.0 | 8.0 | 0.00 | 0.33 | 0.18 | 94 | 1012.7 |
| 20260507003028 | 11 | 299 | 0.0 | 3.2 | 0.00 | 0.33 | 0.18 | 94 | 1012.7 |
| 20260507001530 | 11 | 300 | 0.0 | 6.4 | 0.00 | 0.33 | 0.18 | 94 | 1012.7 |
| 20260507000026 | 11 | 309 | 1.6 | 8.0 | 0.00 | 0.33 | 0.18 | 94 | 1012.8 |
| 20260506234531 | 11 | 246 | 1.6 | 8.0 | 0.10 | 0.33 | 0.18 | 94 | 1012.8 |
| 20260506233023 | 11 | 196 | 0.0 | 3.2 | 0.15 | 0.33 | 0.18 | 94 | 1013.0 |
| 20260506231526 | 12 | 355 | 0.0 | 1.6 | 0.18 | 0.33 | 0.18 | 93 | 1012.8 |
| 20260506230021 | 12 | 360 | 0.0 | 6.4 | 0.18 | 0.33 | 0.18 | 92 | 1012.9 |
| 20260506224517 | 12 | 355 | 0.0 | 3.2 | 0.08 | 0.23 | 0.08 | 91 | 1013.3 |
| 20260506223012 | 12 | 298 | 1.6 | 9.7 | 0.03 | 0.15 | 0.03 | 87 | 1013.0 |
| 20260506221510 | 13 | 265 | 4.8 | 14.5 | 0.00 | 0.15 | 0.00 | 86 | 1012.9 |
| 20260506220015 | 13 | 239 | 4.8 | 9.7 | 0.00 | 0.15 | 0.15 | 86 | 1012.7 |
| 20260506214509 | 13 | 209 | 0.0 | 8.0 | 0.00 | 0.15 | 0.15 | 87 | 1012.6 |
| 20260506213006 | 13 | 223 | 0.0 | 9.7 | 0.03 | 0.15 | 0.15 | 87 | 1012.6 |
| 20260506211508 | 13 | 196 | 0.0 | 9.7 | 0.03 | 0.15 | 0.15 | 90 | 1012.7 |
| 20260506210011 | 13 | 194 | 0.0 | 3.2 | 0.03 | 0.15 | 0.15 | 90 | 1012.7 |
| 20260506204506 | 13 | 184 | 0.0 | 6.4 | 0.03 | 0.15 | 0.15 | 86 | 1012.4 |
| 20260506203005 | 14 | 257 | 0.0 | 6.4 | 0.00 | 0.13 | 0.13 | 85 | 1012.3 |
| 20260506201505 | 14 | 130 | 4.8 | 14.5 | 0.00 | 0.13 | 0.13 | 89 | 1012.2 |
| 20260506200007 | 14 | 242 | 0.0 | 6.4 | 0.00 | 0.13 | 0.13 | 90 | 1012.2 |
| 20260506194503 | 14 | 315 | 0.0 | 0.0 | 0.00 | 0.13 | 0.13 | 91 | 1011.9 |
| 20260506193003 | 14 | 309 | 0.0 | 0.0 | 0.00 | 0.13 | 0.13 | 90 | 1011.8 |
| 20260506191502 | 14 | 309 | 0.0 | 3.2 | 0.00 | 0.13 | 0.13 | 89 | 1011.6 |
| 20260506190001 | 15 | 302 | 1.6 | 9.7 | 0.00 | 0.13 | 0.13 | 88 | 1011.6 |
| 20260506184501 | 15 | 197 | 0.0 | 3.2 | 0.00 | 0.13 | 0.13 | 86 | 1011.4 |
| 20260506183000 | 15 | 197 | 0.0 | 0.0 | 0.00 | 0.13 | 0.13 | 86 | 1011.1 |
| 20260506181600 | 16 | 197 | 0.0 | 8.0 | 0.00 | 0.13 | 0.13 | 81 | 1011.0 |
| 20260506181501 | 16 | 197 | 0.0 | 8.0 | 0.00 | 0.13 | 0.13 | 81 | 1011.0 |
| 20260506180059 | 15 | 140 | 1.6 | 6.4 | 0.00 | 0.13 | 0.13 | 83 | 1010.7 |
| 20260506174559 | 16 | 331 | 0.0 | 3.2 | 0.00 | 0.13 | 0.13 | 86 | 1010.9 |
| 20260506173111 | 16 | 331 | 0.0 | 1.6 | 0.00 | 0.13 | 0.13 | 85 | 1010.9 |
| 20260506171607 | 16 | 331 | 0.0 | 6.4 | 0.00 | 0.13 | 0.13 | 84 | 1010.8 |
| 20260506164612 | 16 | 323 | 0.0 | 8.0 | 0.00 | 0.13 | 0.13 | 86 | 1011.0 |
| 20260506163102 | 16 | 327 | 0.0 | 6.4 | 0.00 | 0.13 | 0.13 | 86 | 1011.0 |
| 20260506161553 | 16 | 302 | 0.0 | 6.4 | 0.00 | 0.13 | 0.13 | 85 | 1011.2 |
| 20260506160104 | 17 | 331 | 3.2 | 8.0 | 0.00 | 0.13 | 0.13 | 86 | 1011.3 |
| 20260506154552 | 16 | 312 | 1.6 | 11.3 | 0.00 | 0.13 | 0.13 | 88 | 1011.6 |
| 20260506153045 | 15 | 298 | 1.6 | 9.7 | 0.00 | 0.13 | 0.13 | 90 | 1011.7 |
| 20260506151543 | 15 | 292 | 1.6 | 4.8 | 0.00 | 0.13 | 0.13 | 90 | 1011.7 |
| 20260506150041 | 15 | 318 | 3.2 | 9.7 | 0.00 | 0.13 | 0.13 | 91 | 1011.9 |
| 20260506144543 | 15 | 276 | 1.6 | 9.7 | 0.03 | 0.13 | 0.13 | 92 | 1011.9 |
| 20260506143039 | 15 | 346 | 0.0 | 8.0 | 0.03 | 0.13 | 0.13 | 92 | 1012.0 |
| 20260506140039 | 15 | 265 | 1.6 | 6.4 | 0.03 | 0.13 | 0.13 | 92 | 1012.1 |
| 20260506134536 | 15 | 242 | 1.6 | 11.3 | 0.00 | 0.10 | 0.10 | 90 | 1012.3 |
| 20260506133034 | 15 | 337 | 1.6 | 9.7 | 0.00 | 0.10 | 0.10 | 92 | 1012.2 |
| 20260506131538 | 15 | 5 | 0.0 | 3.2 | 0.00 | 0.10 | 0.10 | 91 | 1012.3 |
| 20260506130031 | 15 | 310 | 1.6 | 6.4 | 0.00 | 0.10 | 0.10 | 91 | 1012.3 |
| 20260506124534 | 15 | 313 | 0.0 | 3.2 | 0.00 | 0.10 | 0.10 | 91 | 1012.3 |
| 20260506123038 | 15 | 311 | 0.0 | 6.4 | 0.00 | 0.10 | 0.10 | 90 | 1012.5 |
| 20260506121527 | 15 | 257 | 1.6 | 9.7 | 0.03 | 0.10 | 0.10 | 90 | 1012.5 |
| 20260506120036 | 15 | 288 | 1.6 | 8.0 | 0.03 | 0.10 | 0.10 | 92 | 1012.6 |
| 20260506114527 | 14 | 313 | 1.6 | 6.4 | 0.03 | 0.10 | 0.10 | 92 | 1012.6 |
| 20260506113026 | 14 | 329 | 0.0 | 3.2 | 0.03 | 0.10 | 0.10 | 92 | 1012.6 |
| 20260506111524 | 14 | 278 | 1.6 | 6.4 | 0.03 | 0.08 | 0.08 | 91 | 1012.7 |
| 20260506110026 | 15 | 232 | 0.0 | 6.4 | 0.03 | 0.08 | 0.08 | 92 | 1012.8 |
| 20260506104522 | 15 | 299 | 1.6 | 8.0 | 0.03 | 0.08 | 0.08 | 92 | 1012.9 |
| 20260506103028 | 15 | 324 | 0.0 | 3.2 | 0.03 | 0.08 | 0.08 | 92 | 1013.0 |
| 20260506101522 | 15 | 326 | 0.0 | 3.2 | 0.03 | 0.05 | 0.05 | 92 | 1013.2 |
| 20260506100022 | 14 | 226 | 0.0 | 6.4 | 0.03 | 0.05 | 0.05 | 93 | 1013.2 |
| 20260506094530 | 15 | 298 | 0.0 | 8.0 | 0.05 | 0.05 | 0.05 | 91 | 1013.3 |
| 20260506093029 | 15 | 199 | 0.0 | 0.0 | 0.05 | 0.05 | 0.05 | 90 | 1013.3 |
| 20260506091523 | 15 | 182 | 0.0 | 0.0 | 0.05 | 0.05 | 0.05 | 89 | 1013.2 |